Flag for Germany Weather past 2 weeks in Bornheim (Rheinland), North Rhine-Westphalia, Germany

Now
64 °F

Overcast.


Feels Like: 64 °F
Forecast: 58 / 72 °F
Wind: 5 mph from Southeast

Location: Bonn-Hangelar

Current Time: Sep 18, 2014 at 12:31:53 AM

Latest Report: Sep 18, 2014 at 12:00 AM


Visibility: 13 mi

Pressure: 29.85 "Hg

Humidity: 79%

Dew point: 57 °F

Location of Bornheim (Rheinland)Location

Historic Weather in Bornheim (Rheinland) — Graph

°F

Bornheim (Rheinland) temperature yesterday

Maximum temperature yesterday: 75 °F (at 3:00 PM)
Minimum temperature yesterday: 56 °F (at 7:00 AM)
Average temperature yesterday: 65 °F

Past Weeks' High & Low Weather Summary

 TemperatureHumidityPressure
High75 °F (Sep 17, 3:00 PM)99% (Sep 3, 5:00 AM)30.27 "Hg (Sep 3, 5:00 AM)
Low47 °F (Sep 12, 7:00 AM)52% (Sep 10, 3:00 PM)29.83 "Hg (Sep 17, 6:00 PM)
Average61 °F81%30.06 "Hg
* Reported Sep 2 11:00 PM — Sep 17 11:00 PM, Bornheim (Rheinland), Weather by CustomWeather, © 2014

Note: Actual official high and low records may vary slightly from our data, if they occured in-between our weather recording intervals... More about our weather records

Advertising

Bornheim (Rheinland) weather history for previous 24 hours

 ConditionsComfort  
Time TempWeatherWind HumidityBarometerVisibility
11:00 PM
Sep 17
65 °FOvercast.3 mph81%29.85 "Hg11 mi
10:00 PM65 °FOvercast.3 mph79%29.85 "Hg10 mi
9:00 PM64 °FPassing clouds.5 mph77%29.85 "Hg19 mi
8:00 PM67 °FPassing clouds.5 mph70%29.85 "Hg19 mi
7:00 PM72 °FScattered clouds.5 mph58%29.83 "Hg19 mi
6:00 PM75 °FPassing clouds.6 mph53%29.83 "Hg19 mi
5:00 PM75 °FPassing clouds.5 mph54%29.83 "Hg19 mi
4:00 PM75 °FPassing clouds.5 mph54%29.83 "Hg19 mi
3:00 PM75 °FPassing clouds.3 mph53%29.85 "Hg19 mi
2:00 PM75 °FPassing clouds.5 mph52%29.86 "Hg19 mi
1:00 PM73 °FPassing clouds.5 mph56%29.87 "Hg19 mi
12:00 PM72 °FPassing clouds.5 mph58%29.88 "Hg19 mi
11:00 AM69 °FPassing clouds.3 mph69%29.90 "Hg16 mi
10:00 AM64 °FPassing clouds.3 mph78%29.90 "Hg16 mi
9:00 AM62 °FPassing clouds.2 mph86%29.91 "Hg16 mi
8:00 AM57 °FPassing clouds.3 mph95%29.91 "Hg16 mi
7:00 AM56 °FPassing clouds.3 mph93%29.92 "Hg16 mi
6:00 AM56 °FClear.3 mph91%29.92 "Hg16 mi
5:00 AM57 °FClear.2 mph88%29.93 "Hg6 mi
4:00 AM60 °FClear.3 mph82%29.93 "Hg10 mi
3:00 AM58 °FClear.2 mph87%29.93 "Hg9 mi
2:00 AM56 °FClear.3 mph89%29.94 "Hg8 mi
1:00 AM58 °FClear.3 mph84%29.94 "Hg13 mi
12:00 AM58 °FClear.2 mph85%29.95 "Hg11 mi
Weather by CustomWeather, © 2014

See weather overviewHow to use our weather pages